Odessa, TX

9:52 PM CDT on May 22, 2017 (GMT -0500)
Odessa-Schlemeyer

Weather History for KODO - March, 2013

Change the Weather History Date:

Sunday, March 31, 2013

  Actual Average (KMAF) Record (KMAF)
Temperature  
Mean Temperature 68 °F -  
Max Temperature 78 °F 70 °F 97 °F (1946)
Min Temperature 59 °F 45 °F 16 °F (1931)
Cooling Degree Days 3    
Growing Degree Days 18 (Base 50)    
Moisture  
Dew Point 36 °F    
Average Humidity 31    
Maximum Humidity 60    
Minimum Humidity 15    
Precipitation  
Precipitation 0.00 in - - ()
Sea Level Pressure  
Sea Level Pressure 29.88 in    
Wind  
Wind Speed 9 mph (North)    
Max Wind Speed 26 mph    
Max Gust Speed 32 mph    
Visibility 10 miles    
Events      
Averages and records for this station are not official NWS values.
T = Trace of Precipitation, MM = Missing Value Source: NWS Daily Summary

Daily Weather History Graph

Daily Weather History Graph

Search for Another Location

Airport or City:

Trip Planner

Search our weather history database for the weather conditions in past years. The results will help you decide how hot, cold, wet, or windy it might be!

Date:

Astronomy

Mar. 31, 2013 Rise Set
Actual Time 7:38 AM CDT 8:08 PM CDT
Civil Twilight 7:14 AM CDT 8:33 PM CDT
Nautical Twilight 6:45 AM CDT 9:02 PM CDT
Astronomical Twilight 6:16 AM CDT 9:31 PM CDT
Moon 12:02 AM CDT (3/31) 10:43 AM CDT (3/31)
Length of Visible Light 13h 19m
Length of Day
12h 29m
Waning Gibbous, 77% of the Moon is Illuminated
Mar 31
Waning Gibbous
Apr 2
Last Quarter
Apr 10
New
Apr 18
First Quarter
Apr 25
Full

Hourly Weather History & Observations

Time (CDT) Temp. Dew Point Humidity Pressure Visibility Wind Dir Wind Speed Gust Speed Precip Events Conditions
12:53 AM 75.9 °F 24.1 °F 15% 29.82 in 10.0 mi SW 5.8 mph - N/A   Partly Cloudy
1:53 AM 75.0 °F 25.0 °F 16% 29.82 in 10.0 mi West 6.9 mph - N/A   Scattered Clouds
2:53 AM 75.9 °F 26.1 °F 16% 29.81 in 10.0 mi WNW 8.1 mph - N/A   Partly Cloudy
3:53 AM 71.1 °F 27.0 °F 19% 29.81 in 10.0 mi NW 4.6 mph - N/A   Partly Cloudy
4:53 AM 70.0 °F 28.9 °F 22% 29.79 in 10.0 mi West 4.6 mph - N/A   Clear
5:53 AM 66.9 °F 28.9 °F 24% 29.81 in 10.0 mi West 5.8 mph - N/A   Partly Cloudy
6:53 AM 64.9 °F 28.9 °F 26% 29.82 in 10.0 mi WNW 4.6 mph - N/A   Clear
7:53 AM 63.0 °F 28.9 °F 28% 29.85 in 10.0 mi WNW 4.6 mph - N/A   Clear
8:53 AM 68.0 °F 26.1 °F 21% 29.90 in 10.0 mi North 16.1 mph 24.2 mph N/A   Mostly Cloudy
9:53 AM 59.0 °F 45.0 °F 60% 29.96 in 7.0 mi NE 26.5 mph 31.1 mph N/A   Scattered Clouds
10:53 AM 63.0 °F 45.0 °F 52% 29.98 in 10.0 mi NE 25.3 mph 32.2 mph N/A   Clear
11:53 AM 66.9 °F 45.0 °F 45% 29.94 in 10.0 mi NE 24.2 mph 29.9 mph N/A   Clear
12:53 PM 70.0 °F 45.0 °F 41% 29.95 in 10.0 mi ENE 19.6 mph - N/A   Clear
1:53 PM 72.0 °F 44.1 °F 37% 29.94 in 10.0 mi ENE 15.0 mph 26.5 mph N/A   Clear
2:53 PM 75.0 °F 43.0 °F 32% 29.91 in 10.0 mi North 13.8 mph 20.7 mph N/A   Clear
3:53 PM 75.9 °F 43.0 °F 31% 29.89 in 10.0 mi ENE 10.4 mph 17.3 mph N/A   Clear
4:53 PM 77.0 °F 41.0 °F 28% 29.87 in 10.0 mi NE 9.2 mph - N/A   Clear
5:53 PM 77.0 °F 39.0 °F 25% 29.86 in 10.0 mi North 5.8 mph - N/A   Clear
6:53 PM 77.0 °F 39.0 °F 25% 29.86 in 10.0 mi NNE 3.5 mph - N/A   Clear
7:53 PM 73.9 °F 39.0 °F 28% 29.88 in 10.0 mi NNE 9.2 mph - N/A   Clear
8:53 PM 66.0 °F 39.0 °F 37% 29.90 in 10.0 mi ENE 6.9 mph - N/A   Clear
9:53 PM 63.0 °F 39.0 °F 41% 29.94 in 10.0 mi East 8.1 mph - N/A   Clear
11:53 PM 62.1 °F 42.1 °F 48% 29.94 in 10.0 mi East 11.5 mph - N/A   Clear